| time (UTC) | temp C | wind direction | speed KPH | gust KPH | rain 1hr cm | rain 24hr cm | rain mn cm | humidity % | barometer mb |
| 20260902153050 | 24 | 258 | 4.8 | 16.1 | 0.00 | 0.00 | 0.00 | 48 | 1017.8 |
| 20260902151553 | 24 | 313 | 1.6 | 14.5 | 0.00 | 0.00 | 0.00 | 48 | 1017.7 |
| 20260902150048 | 25 | 279 | 4.8 | 20.9 | 0.00 | 0.00 | 0.00 | 48 | 1017.8 |
| 20260902144547 | 24 | 332 | 0.0 | 17.7 | 0.00 | 0.00 | 0.00 | 50 | 1017.9 |
| 20260902143047 | 24 | 316 | 4.8 | 17.7 | 0.00 | 0.00 | 0.00 | 51 | 1017.8 |
| 20260902141546 | 24 | 5 | 0.0 | 9.7 | 0.00 | 0.00 | 0.00 | 51 | 1017.9 |
| 20260902140047 | 24 | 318 | 1.6 | 17.7 | 0.00 | 0.00 | 0.00 | 52 | 1018.0 |
| 20260902134543 | 24 | 271 | 0.0 | 16.1 | 0.00 | 0.00 | 0.00 | 52 | 1018.1 |
| 20260902133047 | 24 | 287 | 8.0 | 20.9 | 0.00 | 0.00 | 0.00 | 50 | 1018.0 |
| 20260902131543 | 24 | 256 | 0.0 | 12.9 | 0.00 | 0.00 | 0.00 | 49 | 1017.8 |
| 20260902130041 | 24 | 300 | 9.7 | 17.7 | 0.00 | 0.00 | 0.00 | 47 | 1018.0 |
| 20260902124539 | 24 | 294 | 8.0 | 19.3 | 0.00 | 0.00 | 0.00 | 48 | 1018.2 |
| 20260902123038 | 24 | 289 | 1.6 | 16.1 | 0.00 | 0.00 | 0.00 | 47 | 1018.1 |
| 20260902121542 | 24 | 269 | 0.0 | 16.1 | 0.00 | 0.00 | 0.00 | 46 | 1018.3 |
| 20260902120040 | 25 | 267 | 0.0 | 9.7 | 0.00 | 0.00 | 0.00 | 47 | 1018.3 |
| 20260902114542 | 23 | 263 | 1.6 | 14.5 | 0.00 | 0.00 | 0.00 | 49 | 1018.3 |
| 20260902113036 | 24 | 355 | 1.6 | 9.7 | 0.00 | 0.00 | 0.00 | 48 | 1018.4 |
| 20260902111532 | 24 | 287 | 0.0 | 14.5 | 0.00 | 0.00 | 0.00 | 48 | 1018.7 |
| 20260902110032 | 25 | 265 | 0.0 | 6.4 | 0.00 | 0.00 | 0.00 | 49 | 1018.8 |
| 20260902104544 | 23 | 276 | 4.8 | 14.5 | 0.00 | 0.00 | 0.00 | 52 | 1018.9 |
| 20260902103025 | 22 | 284 | 0.0 | 6.4 | 0.00 | 0.00 | 0.00 | 55 | 1019.2 |
| 20260902101523 | 22 | 288 | 0.0 | 11.3 | 0.00 | 0.00 | 0.00 | 57 | 1019.2 |
| 20260902100018 | 23 | 240 | 0.0 | 0.0 | 0.00 | 0.00 | 0.00 | 54 | 1019.1 |
| 20260902094515 | 22 | 240 | 0.0 | 4.8 | 0.00 | 0.00 | 0.00 | 58 | 1019.3 |
| 20260902093013 | 21 | 70 | 0.0 | 4.8 | 0.00 | 0.00 | 0.00 | 58 | 1019.5 |
| 20260902091515 | 20 | 135 | 0.0 | 4.8 | 0.00 | 0.00 | 0.00 | 63 | 1019.6 |
| 20260902090006 | 18 | 190 | 0.0 | 0.0 | 0.00 | 0.00 | 0.00 | 68 | 1019.5 |
| 20260902084502 | 18 | 191 | 0.0 | 4.8 | 0.00 | 0.00 | 0.00 | 70 | 1019.4 |
| 20260902083002 | 18 | 191 | 0.0 | 0.0 | 0.00 | 0.00 | 0.00 | 70 | 1019.5 |
| 20260902081618 | 18 | 191 | 0.0 | 3.2 | 0.00 | 0.00 | 0.00 | 71 | 1019.5 |
| 20260902080106 | 17 | 191 | 0.0 | 4.8 | 0.00 | 0.00 | 0.00 | 72 | 1019.3 |
| 20260902074554 | 17 | 291 | 0.0 | 0.0 | 0.00 | 0.00 | 0.00 | 78 | 1019.3 |
| 20260902073051 | 15 | 291 | 0.0 | 0.0 | 0.00 | 0.00 | 0.00 | 86 | 1019.1 |
| 20260902071549 | 13 | 291 | 0.0 | 0.0 | 0.00 | 0.00 | 0.00 | 89 | 1019.4 |
| 20260902070042 | 13 | 291 | 0.0 | 0.0 | 0.00 | 0.00 | 0.00 | 89 | 1019.3 |
| 20260902064542 | 13 | 291 | 0.0 | 0.0 | 0.00 | 0.00 | 0.00 | 89 | 1019.2 |
| 20260902063101 | 12 | 291 | 0.0 | 0.0 | 0.00 | 0.00 | 0.00 | 90 | 1019.2 |
| 20260902061550 | 12 | 291 | 0.0 | 0.0 | 0.00 | 0.00 | 0.00 | 90 | 1019.2 |
| 20260902060053 | 12 | 291 | 0.0 | 0.0 | 0.00 | 0.00 | 0.00 | 91 | 1019.3 |
| 20260902054537 | 11 | 291 | 0.0 | 0.0 | 0.00 | 0.00 | 0.00 | 91 | 1019.2 |
| 20260902053036 | 11 | 291 | 0.0 | 0.0 | 0.00 | 0.00 | 0.00 | 92 | 1019.1 |
| 20260902051534 | 10 | 291 | 0.0 | 0.0 | 0.00 | 0.00 | 0.00 | 92 | 1019.1 |
| 20260902050031 | 10 | 291 | 0.0 | 0.0 | 0.00 | 0.00 | 0.00 | 92 | 1019.1 |
| 20260902044539 | 10 | 291 | 0.0 | 0.0 | 0.00 | 0.00 | 0.00 | 92 | 1019.3 |
| 20260902043128 | 10 | 291 | 0.0 | 0.0 | 0.00 | 0.00 | 0.00 | 91 | 1019.3 |
| 20260902041526 | 10 | 291 | 0.0 | 0.0 | 0.00 | 0.00 | 0.00 | 92 | 1019.1 |
| 20260902040025 | 10 | 291 | 0.0 | 0.0 | 0.00 | 0.00 | 0.00 | 92 | 1019.0 |
| 20260902034523 | 10 | 291 | 0.0 | 0.0 | 0.00 | 0.00 | 0.00 | 91 | 1019.0 |
| 20260902033022 | 10 | 291 | 0.0 | 0.0 | 0.00 | 0.00 | 0.00 | 91 | 1019.1 |
| 20260902031534 | 10 | 291 | 0.0 | 0.0 | 0.00 | 0.00 | 0.00 | 91 | 1019.0 |
| 20260902030019 | 10 | 291 | 0.0 | 0.0 | 0.00 | 0.00 | 0.00 | 91 | 1019.0 |
| 20260902024519 | 11 | 291 | 0.0 | 0.0 | 0.00 | 0.00 | 0.00 | 91 | 1019.0 |
| 20260902023017 | 11 | 292 | 0.0 | 0.0 | 0.00 | 0.00 | 0.00 | 91 | 1019.1 |
| 20260902021521 | 11 | 292 | 0.0 | 0.0 | 0.00 | 0.00 | 0.00 | 91 | 1019.0 |
| 20260902020014 | 11 | 292 | 0.0 | 0.0 | 0.00 | 0.00 | 0.00 | 91 | 1019.0 |
| 20260902014534 | 11 | 292 | 0.0 | 0.0 | 0.00 | 0.00 | 0.00 | 91 | 1019.0 |
| 20260902013010 | 11 | 292 | 0.0 | 0.0 | 0.00 | 0.00 | 0.00 | 91 | 1019.2 |
| 20260902011511 | 11 | 292 | 0.0 | 0.0 | 0.00 | 0.00 | 0.00 | 91 | 1019.2 |
| 20260902010009 | 11 | 292 | 0.0 | 0.0 | 0.00 | 0.00 | 0.00 | 90 | 1019.1 |
| 20260902004504 | 11 | 292 | 0.0 | 0.0 | 0.00 | 0.00 | 0.00 | 90 | 1019.2 |
| 20260902003005 | 12 | 292 | 0.0 | 0.0 | 0.00 | 0.00 | 0.00 | 90 | 1019.3 |
| 20260902001600 | 12 | 292 | 0.0 | 0.0 | 0.00 | 0.00 | 0.00 | 90 | 1019.4 |
| 20260902000059 | 12 | 292 | 0.0 | 0.0 | 0.00 | 0.00 | 0.00 | 90 | 1019.5 |
| 20260901234607 | 12 | 292 | 0.0 | 0.0 | 0.00 | 0.00 | 0.00 | 89 | 1019.5 |
| 20260901233058 | 12 | 292 | 0.0 | 0.0 | 0.00 | 0.00 | 0.00 | 89 | 1019.5 |
| 20260901231554 | 12 | 292 | 0.0 | 0.0 | 0.00 | 0.00 | 0.00 | 89 | 1019.5 |
| 20260901230055 | 13 | 292 | 0.0 | 0.0 | 0.00 | 0.00 | 0.00 | 89 | 1019.6 |
| 20260901224553 | 13 | 292 | 0.0 | 0.0 | 0.00 | 0.00 | 0.00 | 89 | 1019.6 |
| 20260901223059 | 13 | 292 | 0.0 | 0.0 | 0.00 | 0.00 | 0.00 | 88 | 1019.6 |
| 20260901221608 | 13 | 292 | 0.0 | 0.0 | 0.00 | 0.00 | 0.00 | 88 | 1019.6 |
| 20260901220047 | 13 | 292 | 0.0 | 0.0 | 0.00 | 0.00 | 0.00 | 88 | 1019.6 |
| 20260901214545 | 13 | 292 | 0.0 | 0.0 | 0.00 | 0.00 | 0.00 | 87 | 1019.5 |
| 20260901213046 | 14 | 292 | 0.0 | 0.0 | 0.00 | 0.00 | 0.00 | 86 | 1019.5 |
| 20260901211543 | 14 | 292 | 0.0 | 0.0 | 0.00 | 0.00 | 0.00 | 85 | 1019.4 |
| 20260901210046 | 14 | 292 | 0.0 | 0.0 | 0.00 | 0.00 | 0.00 | 84 | 1019.5 |
| 20260901204547 | 15 | 292 | 0.0 | 0.0 | 0.00 | 0.00 | 0.00 | 85 | 1019.4 |
| 20260901203057 | 15 | 292 | 0.0 | 0.0 | 0.00 | 0.00 | 0.00 | 83 | 1019.3 |
| 20260901201547 | 15 | 292 | 0.0 | 0.0 | 0.00 | 0.00 | 0.00 | 82 | 1019.3 |
| 20260901200040 | 15 | 292 | 0.0 | 0.0 | 0.00 | 0.00 | 0.00 | 81 | 1019.3 |
| 20260901194540 | 16 | 292 | 0.0 | 0.0 | 0.00 | 0.00 | 0.00 | 78 | 1019.3 |
| 20260901193042 | 16 | 292 | 0.0 | 0.0 | 0.00 | 0.00 | 0.00 | 78 | 1019.2 |
| 20260901191539 | 17 | 292 | 0.0 | 0.0 | 0.00 | 0.00 | 0.00 | 76 | 1019.1 |
| 20260901190043 | 17 | 292 | 0.0 | 0.0 | 0.00 | 0.00 | 0.00 | 74 | 1019.1 |
| 20260901184539 | 18 | 292 | 0.0 | 0.0 | 0.00 | 0.00 | 0.00 | 72 | 1019.0 |
| 20260901183039 | 18 | 292 | 0.0 | 0.0 | 0.00 | 0.00 | 0.00 | 72 | 1018.8 |
| 20260901181541 | 19 | 292 | 0.0 | 0.0 | 0.00 | 0.00 | 0.00 | 67 | 1018.7 |
| 20260901180037 | 20 | 292 | 0.0 | 0.0 | 0.00 | 0.00 | 0.00 | 63 | 1018.5 |
| 20260901174537 | 21 | 292 | 0.0 | 0.0 | 0.00 | 0.03 | 0.00 | 57 | 1018.5 |
| 20260901173035 | 21 | 292 | 0.0 | 0.0 | 0.00 | 0.03 | 0.00 | 56 | 1018.4 |
| 20260901171537 | 21 | 292 | 0.0 | 4.8 | 0.00 | 0.03 | 0.00 | 54 | 1018.4 |
| 20260901170033 | 22 | 288 | 0.0 | 1.6 | 0.00 | 0.03 | 0.00 | 52 | 1018.5 |
| 20260901164534 | 22 | 289 | 0.0 | 3.2 | 0.00 | 0.13 | 0.00 | 52 | 1018.6 |
| 20260901163034 | 22 | 289 | 0.0 | 3.2 | 0.00 | 0.13 | 0.00 | 53 | 1018.6 |
| 20260901161539 | 22 | 327 | 0.0 | 14.5 | 0.00 | 0.13 | 0.00 | 52 | 1018.6 |
| 20260901160047 | 22 | 329 | 1.6 | 14.5 | 0.00 | 0.13 | 0.00 | 51 | 1018.6 |
| 20260901154534 | 22 | 302 | 1.6 | 17.7 | 0.00 | 0.13 | 0.00 | 51 | 1018.5 |